Showing default

ICEYE-X47, 62389

Orbit data source: Space-Track

ICEYE-X47, 62389 is a payload satellite owned by ICEYE (FI) in LEO that was launched on Sat, 21 Dec 2024 UTC via an FALCON 9 launch vehicle from the Air Force Western Test Range (AFWTR). Payload-class satellites include a variety of spacecraft equipped with specific instruments for various scientific and technological missions. These include communications satellites like Starlink; space stations such as the ISS; scientific satellites like the Hubble; Earth observation satellites from companies like Planet Labs, Umbra, and HawkEye 360; GPS; miniature CubeSats for education and research; and military/defense satellites.

Loading next visibility...
Identifier
62389, 2024-247N
Orbit
LEO
Country
Flag of FIFI / FIN
Related business
Manufacturer
ICEYE
Mission
Operational Commercial Radar Imaging
Bus & Motor
ICEYE, Unknown motor
Mass
80 kg wet, 80 kg dry
Launch date (UTC)
2024-12-21 (1 year ago)
Launch vehicle
FALCON 9
Launch site
Air Force Western Test Range (AFWTR)
Object type
Payload
Rocket body
Debris
Shape & HBR
Box + 1 Pan, 0.8 m
Radar Cross Section
0.776 m², Medium (>0.1 m² and < 1m²)

Expand to show TLE details & history
Last TLE update: 15 hours ago

TLE from 15 hours ago
0 ICEYE-X47
1 62389U 24247N   26023.43866381  .00011792  00000-0  69989-3 0  9993
2 62389  44.9952  49.1946 0002000 278.1963  81.8687 15.11431683 60269
Epoch: 2026-01-23T10:31Z
TLE epoch observation values (Epoch: 2026-01-23T10:31:40.553Z)
Latitude
Longitude
128.49817°
Altitude
531.636 km
Speed
7.599 km/s
True Right ascension
03h 16m 46s
True Declination
0° 00' 00"
Sunlit
Object was in daylight at epoch
Visualization orbit readout
Latitude
Unknown
Longitude
Unknown
Altitude
Unknown
Speed
Unknown
Apparent Right ascension
Unknown
Apparent Declination
Unknown
Sunlit
N/A
Visualization observer readout
Local Sidereal Time
03:06:00
Azimuth
Unknown
Elevation
Unknown
Doppler factor
Unknown
Orbital elements
Apogee altitude
534.814 km
Perigee altitude
532.049 km
Semi-major axis
6,911.569 km
Eccentricity
0.0002
Inclination
44.9952°
RAAN
49.1946°
Arg. of periapsis
278.1963°
True anomaly
81.89139°
Mean anomaly
81.8687°
Eccentric anomaly
81.88004°
Mean motion
3.77727 °/min
Orbital period
95.31 mins
BSTAR
0.00069989
Loading maneuver chart data...
Computing Atmospheric mass density...
Loading historical data...
Loading historical data...
Loading historical data...
Loading historical data...
Loading historical data...
Loading historical data...
Loading historical data...

Documentation

Showing up to 5 results
|